Lexington Weather

Lexington, Massachusetts, USA

47°F
10/22/2019 2:27am 
  • Lexington Conditions: Mostly cloudy
  • Temperature: 46.6°F / 8.1°CWarmer 1.3°F than last hour.
  • Dew Point: 45.0°FIncreased 1.8°Fsince last hour.
  • Relative Humidity: 94%Increased 2.0% since last hour.
  • Wind: Calm, 10-min avg: Calm, gust: None
  • Barometer: 30.12 in Steady
  • Visibility: 9 miles
  • Rain Today: 0.00 in
  •   

Regional Weather Roundup
for Boston, MA

        
000
ASUS41 KBOX 191410
RWRBOX

REGIONAL WEATHER ROUNDUP
NATIONAL WEATHER SERVICE BOSTON/NORTON MA
1000 AM EDT SAT OCT 19 2019

NOTE:  "FAIR" INDICATES FEW OR NO CLOUDS BELOW 12,000 FEET WITH NO 
SIGNIFICANT WEATHER AND/OR OBSTRUCTIONS TO VISIBILITY.

MAZALL-191500-
EASTERN MASSACHUSETTS
  
CITY           SKY/WX    TMP DP  RH WIND       PRES   REMARKS
BOSTON         FAIR      51  33  50 NW13G22   30.01S                  
BEVERLY        FAIR      49  36  61 NW13      29.99S                  
LAWRENCE       FAIR      47  35  63 NW9       30.02R                  
BEDFORD        FAIR      45  36  70 NW9       30.00S                  
BLUE HILL      NOT AVBL                                               
NORWOOD        FAIR      52  35  52 NW12      30.02R                  
MARSHFIELD     FAIR      50  36  57 VRB7G15   30.00S                  
PLYMOUTH       FAIR      48  36  63 NW9       30.01S                  
TAUNTON        FAIR      50  35  56 W8        30.02S                  
NEW BEDFORD    FAIR      50  35  56 NW8       30.02R                  
$$

MAZALL-191500-
CAPE COD AND THE ISLANDS
  
CITY           SKY/WX    TMP DP  RH WIND       PRES   REMARKS
FALMOUTH       SUNNY     48  36  61 N9G15     30.01S                  
HYANNIS        FAIR      51  37  58 NW10      29.99S                  
CHATHAM        NOT AVBL                                               
PROVINCETOWN   FAIR      51  40  65 NW10        N/A                   
NANTUCKET      FAIR      51  40  65 NW13      30.01R                  
MARTHAS VNYRD  FAIR      51  36  56 NW14      30.02R                  
$$
 
MAZALL-191500-
CENTRAL AND WESTERN MASSACHUSETTS
  
CITY           SKY/WX    TMP DP  RH WIND       PRES   REMARKS
WORCESTER      FAIR      43  33  68 W12       30.01R                  
FITCHBURG      FAIR      49  34  56 NW6       30.03S                  
ORANGE         FAIR      47  33  58 N9        30.04R                  
SPRINGFIELD    SUNNY     45  34  66 N3        30.04S                  
WESTFIELD      FAIR      47  35  63 VRB3      30.04F                  
NORTH ADAMS    FAIR      44  34  67 W8        30.06R                  
PITTSFIELD     FAIR      45  36  70 NW8       30.03S                  
$$
 
RIZALL-191500-
RHODE ISLAND
  
CITY           SKY/WX    TMP DP  RH WIND       PRES   REMARKS
PROVIDENCE     FAIR      49  36  61 NW10      30.05R                  
NEWPORT        FAIR      49  36  61 NW13G18   30.04R                  
BLOCK ISLAND   FAIR      49  34  56 N10       30.05F                  
SMITHFIELD     FAIR     N/A N/A N/A NW7       30.04R                  
WESTERLY       FAIR      53  38  56 VRB3      30.06S                  
$$
 
CTZALL-191500-
CONNECTICUT
  
CITY           SKY/WX    TMP DP  RH WIND       PRES   REMARKS
BRADLEY INTL   FAIR      50  34  54 VRB3      30.04F                  
HARTFORD       FAIR      49  37  63 CALM      30.06S                  
BRIDGEPORT     FAIR      50  37  61 W3        30.07S                  
DANBURY        FAIR      47  36  65 NW6       30.07F                  
GROTON         FAIR      51  35  54 W6        30.06S                  
NEW HAVEN      FAIR      51  38  60 SW6       30.07S                  
CHESTER        FAIR      50  36  57 CALM      30.05S                  
MERIDEN        FAIR      48  37  65 CALM      30.06S                  
WILLIMANTIC    FAIR      46  36  68 CALM      30.06F                  
OXFORD         FAIR      45  36  70 VRB5      30.06S                  
$$

MEZ002-015-021-024-NHZ003-005-008-011-012-014-VTZ005-008-191500-
NORTHERN NEW ENGLAND
  
CITY           SKY/WX    TMP DP  RH WIND       PRES   REMARKS
PORTLAND ME    FAIR      50  36  58 NW9       29.97S                  
BANGOR ME      FAIR      49  35  58 NW14G24   29.90S                  
CONCORD NH     FAIR      48  32  53 NW14      30.00S                  
MANCHESTER NH  FAIR      49  32  52 NW9       29.99S                  
NASHUA NH      FAIR      48  34  58 NW10      30.01S                  
PORTSMOUTH NH  SUNNY     50  33  53 NW10      29.97S                  
JAFFREY NH     FAIR      45  31  58 VRB7      30.00S                  
KEENE NH       FAIR      46  34  62 VRB7      30.03S                  
BURLINGTON VT  FAIR      47  31  53 N10       30.07S                  
MT. WASHINGTON PTSUNNY   23  14  68 NW54        N/A  WCI   1          
$$

NYZ052-076-191500-
EASTERN NEW YORK
  
CITY           SKY/WX    TMP DP  RH WIND       PRES   REMARKS
ALBANY         FAIR      49  37  63 NW8       30.09S                  
NEW YORK CITY  FAIR      51  35  54 NW3       30.09S                  
$$
 
ANZALL-191500-
MARINE OBSERVATIONS
  
STATION/POSITION TIME  TEMP    WIND        PRES    VSBY  WAVE
                       AIR SEA DIR/SP/G                  HT/PER
                 (UTC) (F)     (DEG/KT/KT) (MB)    (MI)  (FT/S)
BOSTON BUOY      1350   48 56  330/ 14/ 17 1015.1R         2/ 3
BUZZARDS BAY     1300   47     330/ 15/ 16 1017.1R
NANTUCKET SOUND  1340      56                N/A
MASS BAY-STELLWA 1304   47 55  320/ 16/ 17 1014.9R  1 3/4  2/ 3
ISLE OF SHOALS   1300   46     310/ 16/ 18 1014.7R
S OF BLOCK IS    1400      60                N/A           3/ 4
$$

......................KEY.........................
  SKY/WX - SKY CONDITION/PRESENT WEATHER
  TMP    - TEMPERATURE IN FAHRENHEIT
  DWPT   - DEWPOINT IN FAHRENHEIT
  RH     - RELATIVE HUMIDITY IN PERCENT
  WIND   - DIRECTION AND SPEED IN MPH
  PRES   - MEAN SEA LEVEL PRESSURE IN INCHES OF HG
  WCI    - WIND CHILL INDEX
  VSB    - VISIBILITY IN MILES
  HX     - HEAT INDEX
  TC     - TEMPERATURE IN CELSIUS
  VRB    - VARIABLE WIND DIRECTION
  N/A    - NOT AVAILABLE
  
      

Other recent Regional Weather Roundups

Tue Oct 22, 2:10am

Tue Oct 22, 2:00am

Tue Oct 22, 1:10am

Tue Oct 22, 1:00am

Tue Oct 22, 12:10am

Tue Oct 22, 12:00am

Mon Oct 21, 11:10pm

Mon Oct 21, 11:00pm

Mon Oct 21, 10:10pm

Mon Oct 21, 10:01pm

Mon Oct 21, 9:10pm

Mon Oct 21, 9:00pm

Mon Oct 21, 8:10pm

Mon Oct 21, 8:00pm

Mon Oct 21, 7:10pm

Mon Oct 21, 7:01pm

Mon Oct 21, 6:10pm

Mon Oct 21, 6:01pm

Mon Oct 21, 5:10pm

Mon Oct 21, 5:01pm

Mon Oct 21, 4:10pm

Mon Oct 21, 4:00pm

Mon Oct 21, 3:10pm

Mon Oct 21, 3:01pm

Mon Oct 21, 2:10pm

Mon Oct 21, 2:00pm

Mon Oct 21, 1:10pm

Mon Oct 21, 1:01pm

Mon Oct 21, 12:10pm

Mon Oct 21, 12:00pm

Mon Oct 21, 11:10am

Mon Oct 21, 11:00am

Mon Oct 21, 10:10am

Mon Oct 21, 10:00am

Mon Oct 21, 9:10am

Mon Oct 21, 9:00am

Mon Oct 21, 7:10am

Mon Oct 21, 7:00am

Mon Oct 21, 6:10am

Mon Oct 21, 6:00am

Mon Oct 21, 5:10am

Mon Oct 21, 5:00am

Mon Oct 21, 4:10am

Mon Oct 21, 4:00am

Mon Oct 21, 3:10am

Mon Oct 21, 3:00am

Mon Oct 21, 2:10am

Mon Oct 21, 2:01am

Mon Oct 21, 1:10am

Mon Oct 21, 1:00am

Mon Oct 21, 12:10am

Mon Oct 21, 12:00am

Sun Oct 20, 11:10pm

Sun Oct 20, 11:00pm

Sun Oct 20, 10:10pm

Sun Oct 20, 10:00pm

Sun Oct 20, 9:10pm

Sun Oct 20, 9:01pm

Sun Oct 20, 8:10pm

Sun Oct 20, 8:00pm

Sun Oct 20, 7:10pm

Sun Oct 20, 7:01pm

Sun Oct 20, 6:10pm

Sun Oct 20, 6:00pm

Sun Oct 20, 5:10pm

Sun Oct 20, 5:00pm

Sun Oct 20, 4:10pm

Sun Oct 20, 4:00pm

Sun Oct 20, 3:10pm

Sun Oct 20, 3:00pm

Sun Oct 20, 2:10pm

Sun Oct 20, 2:01pm

Sun Oct 20, 1:10pm

Sun Oct 20, 1:01pm

Sun Oct 20, 12:10pm

Sun Oct 20, 12:00pm

Sun Oct 20, 11:10am

Sun Oct 20, 11:00am

Sun Oct 20, 10:10am

Sun Oct 20, 10:00am

Sun Oct 20, 9:10am

Sun Oct 20, 9:00am

Sun Oct 20, 8:10am

Sun Oct 20, 8:00am

Sun Oct 20, 7:10am

Sun Oct 20, 7:00am

Sun Oct 20, 6:10am

Sun Oct 20, 6:00am

Sun Oct 20, 5:10am

Sun Oct 20, 5:00am

Sun Oct 20, 4:10am

Sun Oct 20, 4:00am

Sun Oct 20, 3:10am

Sun Oct 20, 3:00am

Sun Oct 20, 2:10am

Sun Oct 20, 2:00am

Sun Oct 20, 1:10am

Sun Oct 20, 1:00am

Sun Oct 20, 12:10am

Sun Oct 20, 12:00am

Sat Oct 19, 11:10pm

Sat Oct 19, 11:00pm

Sat Oct 19, 10:10pm

Sat Oct 19, 10:00pm

Sat Oct 19, 9:10pm

Sat Oct 19, 9:00pm

Sat Oct 19, 8:10pm

Sat Oct 19, 8:00pm

Sat Oct 19, 7:10pm

Sat Oct 19, 7:00pm

Sat Oct 19, 6:10pm

Sat Oct 19, 6:00pm

Sat Oct 19, 5:10pm

Sat Oct 19, 5:00pm

Sat Oct 19, 4:10pm

Sat Oct 19, 4:00pm

Sat Oct 19, 3:10pm

Sat Oct 19, 3:01pm

Sat Oct 19, 2:10pm

Sat Oct 19, 2:00pm

Sat Oct 19, 1:10pm

Sat Oct 19, 1:01pm

Sat Oct 19, 12:10pm

Sat Oct 19, 12:00pm

Sat Oct 19, 11:10am

Sat Oct 19, 11:01am

Sat Oct 19, 10:00am

Sat Oct 19, 9:10am

Sat Oct 19, 9:00am

Sat Oct 19, 8:10am

Sat Oct 19, 8:00am

Sat Oct 19, 7:10am

Sat Oct 19, 7:00am

Sat Oct 19, 6:10am

Sat Oct 19, 6:00am

Sat Oct 19, 5:10am

Sat Oct 19, 5:00am

Sat Oct 19, 4:10am

Sat Oct 19, 4:00am

Sat Oct 19, 3:10am

Sat Oct 19, 3:00am

Meta data:

ID: 0f4ff3f7-5580-40eb-8e60-77fd48691396
Link: https://api.weather.gov/products/0f4ff3f7-5580-40eb-8e60-77fd48691396